[[{"header":{"parameterUnit":"m.s-1","parameterCategory":1,"la1":30.2992,"la2":30.254,"lo1":-89.0895,"lo2":-89.0443,"dy":0.0025,"dx":0.0025,"nx":19,"ny":19,"refTime":"2026-04-29T21:00:00:Z","depth":0,"parameterNumber":2,"parameterNumberName":"U-component_of_WINDS"},"data":[0,0,0,-3.1255,-3.1258,-3.1396,-3.1397,-3.1585,-3.1587,0,0,0,0,0,0,0,0,0,0,0,-3.1223,-3.1224,-3.1255,-3.1259,-3.1396,-3.1397,-3.1585,-3.1587,0,0,0,0,0,0,0,0,0,0,0,-3.1222,-3.1224,-3.1226,-3.1259,-3.1396,-3.1397,-3.1584,-3.1476,0,0,0,0,0,0,0,0,0,0,-3.134,-3.1318,-3.1223,-3.1226,-3.126,-3.1396,-3.1397,-3.1471,-3.1483,-3.1528,0,-3.1571,0,-3.1582,-3.16,-3.1601,0,0,0,-3.1253,-3.1308,-3.1338,-3.1226,-3.1261,-3.1396,-3.1332,-3.1477,-3.1491,-3.1544,-3.1574,-3.158,-3.1585,-3.1602,-3.1603,-3.1882,-3.1883,0,0,-3.1245,-3.1252,-3.1328,-3.1347,-3.1327,-3.1328,-3.1337,-3.1485,-3.1518,-3.1574,-3.1584,-3.1588,-3.1603,-3.1605,-3.188,-3.1882,0,0,0,-3.1227,-3.1247,-3.1272,-3.134,-3.1363,-3.1332,-3.1342,-3.1511,-3.1519,-3.1586,-3.159,-3.1604,-3.1607,-3.1879,-3.1881,-3.1965,0,0,0,-3.1222,-3.1237,-3.127,-3.1275,-3.1361,-3.1439,-3.1365,-3.1509,-3.1525,-3.1589,-3.1604,-3.1609,-3.1877,-3.188,-3.1958,-3.2003,0,0,0,-3.1211,-3.1235,-3.1258,-3.1275,-3.1335,-3.1437,-3.1453,-3.1512,-3.1528,-3.1601,-3.1609,-3.1876,-3.1879,-3.1953,-3.1994,-3.2077,0,0,0,-3.1201,-3.1333,-3.1259,-3.1407,-3.1334,-3.1487,-3.1452,-3.1566,-3.1639,-3.1605,-3.1877,-3.1881,-3.1951,-3.1989,-3.2071,-3.2147,-3.2179,0,0,-3.1371,-3.1353,-3.144,-3.1378,-3.1546,-3.1466,-3.1646,-3.1707,-3.1708,-3.1824,-3.183,-3.196,-3.1994,-3.2076,-3.236,-3.2386,0,0,0,-3.1496,-3.1558,-3.1601,-3.1669,-3.1718,-3.1762,-3.1794,-3.1816,-3.1913,-3.1769,-3.2013,-3.2033,-3.208,-3.2116,-3.2138,-3.2177,-3.1898,-3.1898,-3.1897,-3.1748,-3.1739,-3.1881,-3.1888,-3.1955,-3.1985,-3.2038,-3.2072,-3.2047,-3.2104,-3.2138,-3.2312,-3.2354,-3.2371,-3.2412,-3.2178,-3.2179,-3.2179,-3.2179,-3.1995,-3.208,-3.204,-3.2162,-3.2152,-3.2255,-3.2287,-3.2264,-3.2358,-3.2287,-3.2328,-3.2251,-3.2399,-3.2434,-3.2185,-3.2184,-3.2184,-3.2183,-3.2183,-3.2158,-3.2198,-3.222,-3.2316,-3.239,-3.2393,-3.2483,-3.2471,-3.2461,-3.2502,-3.2535,-3.2534,-3.2529,-3.2518,-3.2519,-3.252,-3.252,-3.2521,-3.2521,-3.2319,-3.2342,-3.2419,-3.2478,-3.2518,-3.2569,-3.2597,-3.2636,-3.2676,-3.266,-3.2661,-3.2628,-3.2416,-3.2362,-3.253,-3.2529,-3.2527,-3.2527,-3.2526,-3.2573,-3.2512,-3.2632,-3.2672,-3.2737,-3.281,-3.2792,-3.2872,-3.2902,-3.2946,-3.2903,-3.2748,-3.273,-3.2713,-3.2668,-3.2906,-3.2906,-3.2906,-3.2906,-3.271,-3.2698,-3.2815,-3.2879,-3.2941,-3.2935,-3.3068,-3.3088,-3.3101,-3.3119,-3.3082,-3.3022,-3.3004,-3.2996,-3.2973,-3.2931,-3.323,-3.323,-3.3231,-3.2864,-3.2857,-3.2973,-3.2983,-3.3032,-3.3074,-3.3197,-3.3271,-3.3273,-3.3244,-3.3131,-3.3118,-3.302,-3.2989,-3.2959,-3.2923,-3.2845,0,0]},{"header":{"parameterUnit":"m.s-1","parameterCategory":1,"la1":30.2992,"la2":30.254,"lo1":-89.0895,"lo2":-89.0443,"dy":0.0025,"dx":0.0025,"nx":19,"ny":19,"refTime":"2026-04-29T21:00:00:Z","depth":0,"parameterNumber":3,"parameterNumberName":"V-component_of_WINDS"},"data":[0,0,0,-4.3936,-4.3936,-4.3928,-4.3927,-4.3934,-4.3934,0,0,0,0,0,0,0,0,0,0,0,-4.3952,-4.3953,-4.3936,-4.3936,-4.3928,-4.3927,-4.3934,-4.3934,0,0,0,0,0,0,0,0,0,0,0,-4.3952,-4.3953,-4.3953,-4.3936,-4.3928,-4.3927,-4.3934,-4.3933,0,0,0,0,0,0,0,0,0,0,-4.3938,-4.3968,-4.3952,-4.3953,-4.3936,-4.3928,-4.3927,-4.3933,-4.3933,-4.3946,0,-4.3965,0,-4.395,-4.3936,-4.3936,0,0,0,-4.3925,-4.3968,-4.3953,-4.3953,-4.3936,-4.3928,-4.3928,-4.3933,-4.3933,-4.3947,-4.3965,-4.3964,-4.395,-4.3936,-4.3936,-4.4053,-4.4054,0,0,-4.3925,-4.3958,-4.3953,-4.3954,-4.396,-4.3928,-4.3928,-4.3933,-4.3953,-4.3964,-4.3964,-4.395,-4.3937,-4.3937,-4.4052,-4.4053,0,0,0,-4.3934,-4.3959,-4.3943,-4.3954,-4.3952,-4.3929,-4.3928,-4.3953,-4.3945,-4.3964,-4.395,-4.3937,-4.3937,-4.4051,-4.4052,-4.4137,0,0,0,-4.3934,-4.3964,-4.3944,-4.3964,-4.3952,-4.3953,-4.3948,-4.3945,-4.3944,-4.395,-4.3937,-4.3937,-4.405,-4.4052,-4.4132,-4.4171,0,0,0,-4.3948,-4.3965,-4.3969,-4.3966,-4.3964,-4.3952,-4.3944,-4.3944,-4.3937,-4.3936,-4.3937,-4.4049,-4.4051,-4.4127,-4.4164,-4.4209,0,0,0,-4.3972,-4.4045,-4.3971,-4.4047,-4.3964,-4.4006,-4.3944,-4.3973,-4.3983,-4.3937,-4.405,-4.4052,-4.4126,-4.4159,-4.4205,-4.4253,-4.4277,0,0,-4.4083,-4.406,-4.4101,-4.4035,-4.4098,-4.4004,-4.4078,-4.4056,-4.4025,-4.4044,-4.4047,-4.4133,-4.4163,-4.4208,-4.4399,-4.4419,0,0,0,-4.4147,-4.4178,-4.4187,-4.4199,-4.4184,-4.4172,-4.4135,-4.4125,-4.414,-4.4043,-4.4162,-4.4178,-4.4203,-4.4225,-4.4241,-4.4259,-4.4064,-4.4064,-4.4064,-4.4351,-4.4307,-4.4372,-4.4327,-4.4338,-4.4297,-4.43,-4.428,-4.4234,-4.4262,-4.4268,-4.4389,-4.4416,-4.4428,-4.4447,-4.429,-4.4291,-4.4291,-4.4291,-4.4508,-4.4542,-4.4476,-4.4515,-4.4467,-4.4498,-4.4459,-4.4424,-4.4443,-4.4383,-4.4402,-4.4339,-4.445,-4.4464,-4.4297,-4.4296,-4.4295,-4.4295,-4.4294,-4.4635,-4.4644,-4.4632,-4.4641,-4.4652,-4.4601,-4.4622,-4.4577,-4.4535,-4.4555,-4.4553,-4.4552,-4.4543,-4.4557,-4.4558,-4.4558,-4.4559,-4.4559,-4.4559,-4.4773,-4.4756,-4.4781,-4.4768,-4.4767,-4.4759,-4.4715,-4.4712,-4.4696,-4.4661,-4.4661,-4.4609,-4.447,-4.4435,-4.4565,-4.4564,-4.4564,-4.4563,-4.4563,-4.4946,-4.4899,-4.4937,-4.4936,-4.4914,-4.4926,-4.4867,-4.4863,-4.4854,-4.4864,-4.4807,-4.4712,-4.4685,-4.4672,-4.4642,-4.4818,-4.4818,-4.4818,-4.4818,-4.5053,-4.5035,-4.5061,-4.5062,-4.5057,-4.5007,-4.5046,-4.501,-4.4965,-4.4955,-4.4923,-4.488,-4.4869,-4.4848,-4.4831,-4.4803,-4.5016,-4.5016,-4.5016,-4.5156,-4.5134,-4.5179,-4.5136,-4.5114,-4.5095,-4.513,-4.5129,-4.5068,-4.5023,-4.4946,-4.4937,-4.4868,-4.4848,-4.4803,-4.4777,-4.4724,0,0]}]]